Flag for Uruguay Weather past 2 weeks in Melo, Uruguay

Now
77 °F

Clear.


Feels Like: 78 °F
Forecast: 71 / 84 °F
Wind: 3 mph from Northwest

Location: Pelotas Airport

Current Time: Jan 28, 2015 at 3:17:43 AM

Latest Report: Jan 28, 2015 at 3:00 AM


Visibility: 10 mi

Pressure: 29.80 "Hg

Humidity: 100%

Dew point: 77 °F

Location of MeloLocation

Historic Weather in Melo — Graph

°F

Melo temperature yesterday

Maximum temperature yesterday: 91 °F (at 12:00 PM)
Minimum temperature yesterday: 72 °F (at 6:00 AM)
Average temperature yesterday: 81 °F

Past Weeks' High & Low Weather Summary

 TemperatureHumidityPressure
High91 °F (Jan 19, 3:00 PM)100% (Jan 13, 2:00 AM)30.21 "Hg (Jan 13, 2:00 AM)
Low36 °F (Jan 13, 10:00 PM)45% (Jan 21, 12:00 PM)29.74 "Hg (Jan 13, 7:00 PM)
Average76 °F84%29.96 "Hg
* Reported Jan 13 2:00 AM — Jan 28 2:00 AM, Melo, Weather by CustomWeather, © 2014

Note: Actual official high and low records may vary slightly from our data, if they occured in-between our weather recording intervals... More about our weather records

Advertising

Melo weather history for previous 24 hours

 ConditionsComfort  
Time TempWeatherWind HumidityBarometerVisibility
2:00 AM
Jan 28
77 °FThundershowers. Passing clouds.2 mph100%29.83 "HgN/A
1:00 AM77 °FThundershowers. Passing clouds.5 mph100%29.83 "HgN/A
12:00 AM79 °FThunderstorms. Passing clouds.2 mph100%29.83 "HgN/A
11:00 PM
Jan 27
79 °FThunderstorms. Passing clouds.3 mph100%29.83 "HgN/A
10:00 PM79 °FClear.5 mph100%29.80 "Hg10 mi
9:00 PM81 °FClear.7 mph100%29.80 "Hg10 mi
8:00 PM82 °FPassing clouds.8 mph94%29.80 "HgN/A
7:00 PM84 °FPassing clouds.7 mph89%29.74 "HgN/A
6:00 PM81 °FThunderstorms. Partly sunny.6 mph94%29.77 "HgN/A
5:00 PM90 °FThunderstorms. Passing clouds.13 mph63%29.77 "HgN/A
4:00 PM91 °FPassing clouds.10 mph71%29.77 "HgN/A
3:00 PM91 °FScattered clouds.9 mph75%29.80 "HgN/A
2:00 PM82 °FSprinkles. Partly sunny.12 mph100%29.83 "HgN/A
1:00 PM91 °FPartly sunny.12 mph71%29.83 "HgN/A
12:00 PM91 °FScattered clouds.8 mph67%29.86 "HgN/A
11:00 AM90 °FSunny.9 mph71%29.86 "Hg10 mi
10:00 AM86 °FSunny.7 mph75%29.86 "Hg10 mi
9:00 AM81 °FSunny.5 mph94%29.86 "Hg10 mi
8:00 AM75 °FClear.2 mph100%29.83 "Hg5 mi
7:00 AM72 °FFog.3 mph100%29.83 "Hg3 mi
6:00 AM72 °FClear.3 mph100%29.83 "Hg10 mi
5:00 AM73 °FClear.3 mph100%29.83 "Hg10 mi
4:00 AM73 °FClear.5 mph100%29.83 "Hg10 mi
3:00 AM75 °FClear.3 mph100%29.83 "Hg10 mi
Weather by CustomWeather, © 2014

See weather overviewHow to use our weather pages